Regional Weather Roundup
Issued by NWS

Home | Current Version | Previous Version | Graphics & Text | Print | Product List | Glossary On
Versions: 1 2 3 4 5 6 7 8 9 10 11 12 13 14 15 16 17 18 19 20 21 22 23 24 25 26 27 28 29 30 31 32 33 34 35 36 37 38 39 40 41 42 43 44 45 46 47 48 49 50
000
ASUS43 KLOT 271303
RWRIL

ILLINOIS REGIONAL WEATHER ROUNDUP
NATIONAL WEATHER SERVICE CHICAGO/ROMEOVILLE IL
800 AM CDT WED JUL 27 2016

NOTE: "FAIR" INDICATES FEW OR NO CLOUDS BELOW 12,000 FEET WITH NO
SIGNIFICANT WEATHER AND/OR OBSTRUCTIONS TO VISIBILITY.

* THESE STATIONS ARE NOT UNDER NWS QUALITY CONTROL. THEY ALSO MAY NOT
  REPORT WEATHER SUCH AS PRECIPITATION OR FOG.

ILZ001-002-007-009-015-016-024-271400-
NORTHWEST ILLINOIS

CITY           SKY/WX    TMP DP  RH WIND       PRES   REMARKS
MOLINE         SUNNY     73  67  81 E3        30.01F
SAVANNA*       SUNNY     71  68  90 CALM      30.02S
$$

ILZ003-004-008-010-011-017-018-271400-
NORTH CENTRAL ILLINOIS

CITY           SKY/WX    TMP DP  RH WIND       PRES   REMARKS
ROCKFORD       PTSUNNY   72  60  66 S3        30.03F
FREEPORT*      SUNNY     69  67  91 CALM      30.04F
ROCHELLE*      SUNNY     72  69  89 CALM      30.04S
DE KALB*       SUNNY     75  70  84 CALM      30.04S
$$

ILZ005-006-012>014-019>023-271400-
NORTHEAST ILLINOIS

CITY           SKY/WX    TMP DP  RH WIND       PRES   REMARKS
CHICAGO-OHARE  MOSUNNY   76  66  71 CALM      30.02S
CHICAGO-MIDWAY MOSUNNY   77  66  68 CALM      30.02S
AURORA         SUNNY     73  68  84 CALM      30.03S
LANSING*       SUNNY     74  68  81 CALM      30.03S
WAUKEGAN       SUNNY     77  67  71 VRB3      30.01F
DUPAGE AIRPORT SUNNY     76  67  73 CALM      30.02F
KANKAKEE*      SUNNY     74  68  81 CALM      30.04F
WHEELING       SUNNY     76  65  68 CALM      30.03S
MORRIS*        SUNNY     73  69  87 CALM      30.02F
NORTHERLY ISL    N/A     76  66  71 E1          N/A
$$

LMZ740>746-271400-
SOUTHERN LAKE MICHIGAN

STATION/POSITION SKY/WX   TEMP    WIND        PRES    VSBY  WAVE
                          AIR SEA DIR/SP/G                  HT/PER
                          (F)     (DEG/KT/KT) (MB)    (MI)  (FT/S)
SOUTHERN BUOY              75 74  250/  6/  6 1015.6          0
WILMETTE HARBOR            72 74  240/  2/  4   N/A           0
HARRISON CRIB              75     290/  5/  5   N/A
BURNHAM HARBOR             76      CALM  /  4   N/A
CALUMET HARBOR             73     220/  3/  4 1016.0F
BURNS HARBOR               72     200/  4/  7 1017.3S
MICHIGAN CITY              72     180/  5/  6   N/A
MICHIGAN CITY 6N           74 75  230/  6/  8   N/A           1
ST. JOSEPH                 73 77  180/  6/  6 1016.5S         0
$$

ILZ025>027-034>036-040-047-049-050-058-095>099-271400-
WEST-CENTRAL ILLINOIS

CITY           SKY/WX    TMP DP  RH WIND       PRES   REMARKS
QUINCY         SUNNY     74  70  87 E6        29.99F
GALESBURG*     SUNNY     73  70  88 CALM      30.01F
MACOMB*        SUNNY     72  71  99 E3        30.03F FOG
JACKSONVILLE*  CLOUDY    74  70  88 SE6       30.01S
PITTSFIELD*    PTSUNNY   74  73  94 CALM      30.01S
$$

ILZ028>032-037-038-041>044-048-051>054-059>061-271400-
CENTRAL ILLINOIS

CITY           SKY/WX    TMP DP  RH WIND       PRES   REMARKS
PONTIAC        SUNNY     75  74  96 CALM      30.04F
BLOOMINGTON    SUNNY     74  69  85 SE6       30.04F
DECATUR        MOSUNNY   73  70  90 E5        30.03F
PEORIA         SUNNY     76  68  76 S3        30.02F
LACON*         MOSUNNY   74  68  83 CALM      30.01F
LINCOLN*       SUNNY     74  71  91 CALM      30.02F
SPRINGFIELD    SUNNY     77  68  73 SE7       30.01F
TAYLORVILLE    MOSUNNY   74  69  86 MISG      30.02F
$$

ILZ033-039-045-046-055>057-062-063-271400-
EAST-CENTRAL ILLINOIS

CITY           SKY/WX    TMP DP  RH WIND       PRES   REMARKS
CHAMPAIGN      SUNNY     73  68  84 E3        30.04F
MATTOON        CLOUDY    72  68  87 CALM      30.03F
PARIS*         MOSUNNY   72  70  92 CALM      30.05S
$$

ILZ079-100>102-271400-
SOUTHWEST ILLINOIS

CITY           SKY/WX    TMP DP  RH WIND       PRES   REMARKS
ALTON          CLOUDY    75  73  94 VRB5      30.01S FOG
BELLEVILLE     CLOUDY    75  75 100 CALM      29.99S
CAHOKIA*       CLOUDY    77  72  84 N3        30.00S
SPARTA*        CLOUDY    75  74  98 CALM      30.01S
$$

ILZ064>066-069>071-074>076-080>082-084>086-088>090-092>094-271400-
SOUTH-CENTRAL ILLINOIS

CITY           SKY/WX    TMP DP  RH WIND       PRES   REMARKS
CARBONDALE     PTSUNNY   75  73  93 CALM      30.00F
CAIRO*         SUNNY     79  76  90 E3        30.00S HX  82
EFFINGHAM*     CLOUDY    73  73  99 E3        30.03F
MARION         PTSUNNY   77  75  94 NE6       30.01F
MT. VERNON     CLOUDY    75  70  83 MISG      30.00F
CENTRALIA*     CLOUDY    76  76  99 CALM      30.01R FOG
SALEM*         CLOUDY    76  73  92 CALM      30.01S
METROPOLIS*    SUNNY     78  75  92 CALM      30.01S
$$

ILZ067-068-072-073-078-083-087-091-271400-
SOUTHEAST ILLINOIS

CITY           SKY/WX    TMP DP  RH WIND       PRES   REMARKS
LAWRENCEVILLE  LGT RAIN  75  74  96 E3        30.03R
FLORA*         CLOUDY    76  74  93 NE3       30.02S
FAIRFIELD*     CLOUDY    75  75  98 CALM      30.00F
HARRISBURG*    SUNNY     76  75  97 CALM      30.00F
ROBINSON*      CLOUDY    72  72  98 CALM      30.04S
CARMI*         CLOUDY    76  76 100 CALM      30.00F FOG
$$

ABBREVIATIONS USED IN REMARKS
   TC - TEMPERATURE IN CELSIUS
  WCI - WIND CHILL INDEX
   HX - HEAT INDEX
  VSB - VISIBILITY
$$




USA.gov is the U.S. government's official web portal to all federal, state and local government web resources and services.